Total_Precipitation_Accumulation
1.36 1.58 2.29 2.81 2.77 2.14 1.57 1.09 0.89 0.92 0.86 0.66 0.44 0.38 0.57 0.84 1.16 1.50 1.44 1.15 0.76 0.63 0.60 0.86 1.09 0.93 0.82 0.81 0.84 0.91 0.91 0.89 0.90 0.92 0.96 0.72 0.59 0.57 0.52 0.51 0.49 0.45 0.39 0.42 0.50 0.54 0.50 0.42 0.44
1.15 1.98 2.86 3.26 2.54 1.66 1.36 1.05 1.04 0.92 0.68 0.50 0.37 0.32 0.42 0.46 0.37 0.78 1.48 1.52 0.86 0.73 0.71 0.87 1.12 0.98 0.85 0.83 0.91 0.97 0.99 0.98 1.03 1.02 0.89 0.67 0.62 0.61 0.59 0.60 0.62 0.55 0.43 0.41 0.43 0.48 0.48 0.45 0.49
1.33 2.37 2.98 2.97 1.80 1.37 1.30 1.17 1.02 0.70 0.48 0.42 0.39 0.28 0.35 0.52 0.56 0.87 1.36 1.11 0.76 0.75 0.83 1.11 1.21 1.02 0.92 0.87 0.92 1.06 1.11 1.07 1.09 1.02 0.77 0.66 0.63 0.65 0.65 0.68 0.67 0.62 0.56 0.48 0.43 0.44 0.42 0.42 0.44
1.69 2.56 2.65 2.11 1.53 1.12 1.04 1.08 0.76 0.58 0.46 0.35 0.31 0.32 0.37 0.56 0.71 0.81 0.92 0.88 0.72 0.71 0.75 0.95 1.14 1.01 0.92 0.94 1.01 0.99 0.92 0.93 1.01 0.93 0.75 0.63 0.66 0.66 0.66 0.64 0.61 0.62 0.60 0.54 0.51 0.47 0.43 0.44 0.41
2.25 2.74 2.40 1.80 1.40 1.14 0.92 0.75 0.57 0.61 0.52 0.41 0.34 0.42 0.53 0.77 0.89 0.95 0.96 0.91 0.80 0.76 0.71 0.79 0.98 0.92 0.87 0.92 0.99 0.98 0.89 0.92 0.95 0.91 0.84 0.67 0.64 0.67 0.69 0.61 0.55 0.54 0.54 0.52 0.51 0.47 0.44 0.42 0.43
2.55 2.58 2.36 1.91 1.44 1.18 0.96 0.66 0.52 0.55 0.49 0.46 0.45 0.51 0.66 0.92 1.07 1.19 1.03 0.99 0.92 0.82 0.77 0.75 0.86 0.85 0.82 0.85 0.90 0.91 0.89 0.97 0.96 0.83 0.77 0.73 0.64 0.63 0.63 0.58 0.58 0.56 0.56 0.55 0.53 0.47 0.43 0.43 0.44
2.59 2.42 2.12 1.60 1.39 1.36 1.05 0.59 0.49 0.52 0.47 0.47 0.47 0.56 0.70 1.01 1.12 1.07 0.97 0.95 0.97 0.90 0.86 0.81 0.78 0.80 0.86 0.97 0.93 0.89 0.94 1.04 1.00 0.81 0.74 0.75 0.63 0.56 0.54 0.56 0.57 0.56 0.60 0.63 0.57 0.47 0.41 0.45 0.48
1.99 2.08 2.01 1.76 1.54 1.59 1.02 0.57 0.37 0.34 0.38 0.33 0.36 0.51 0.70 0.94 0.95 0.99 0.95 0.95 0.95 0.86 0.80 0.74 0.72 0.75 0.78 0.89 0.94 0.88 0.87 0.96 0.95 0.83 0.82 0.82 0.66 0.55 0.55 0.54 0.58 0.61 0.65 0.71 0.66 0.55 0.49 0.50 0.52
1.83 2.02 2.16 2.04 1.48 1.36 0.86 0.69 0.40 0.24 0.25 0.29 0.31 0.35 0.54 0.61 0.62 0.75 0.85 0.82 0.80 0.73 0.72 0.69 0.67 0.69 0.74 0.82 0.85 0.92 0.94 0.97 0.90 0.83 0.86 0.77 0.57 0.53 0.56 0.51 0.63 0.74 0.88 0.89 0.80 0.71 0.63 0.58 0.50
1.95 2.00 1.93 1.51 1.02 0.86 0.82 0.72 0.41 0.36 0.40 0.40 0.38 0.40 0.65 0.70 0.70 0.81 0.80 0.79 0.74 0.73 0.71 0.68 0.70 0.68 0.67 0.72 0.97 1.11 0.99 0.89 0.78 0.81 0.78 0.76 0.73 0.70 0.52 0.53 0.69 0.76 0.85 0.88 0.83 0.78 0.65 0.47 0.37
1.42 1.50 1.36 1.12 0.75 0.65 0.66 0.54 0.38 0.44 0.52 0.46 0.48 0.54 0.67 0.77 0.77 0.78 0.80 0.78 0.74 0.69 0.69 0.64 0.63 0.58 0.56 0.71 0.89 1.07 1.11 1.07 1.05 0.90 0.89 0.85 0.76 0.65 0.51 0.49 0.54 0.59 0.68 0.67 0.74 0.72 0.52 0.41 0.40
1.17 1.01 0.98 0.92 0.65 0.66 0.63 0.49 0.47 0.47 0.42 0.33 0.37 0.45 0.58 0.68 0.67 0.71 0.74 0.68 0.61 0.60 0.63 0.59 0.57 0.53 0.50 0.51 0.62 0.77 0.83 0.83 0.84 0.85 0.79 0.80 0.81 0.74 0.64 0.58 0.62 0.65 0.63 0.69 0.76 0.73 0.60 0.52 0.44
1.22 1.05 0.86 0.82 0.68 0.68 0.62 0.49 0.43 0.42 0.33 0.31 0.41 0.49 0.60 0.67 0.66 0.62 0.55 0.54 0.55 0.55 0.57 0.57 0.59 0.57 0.62 0.61 0.57 0.56 0.62 0.68 0.72 0.80 0.72 0.67 0.70 0.73 0.75 0.69 0.73 0.70 0.68 0.71 0.72 0.61 0.60 0.60 0.51
1.01 0.98 0.96 0.91 0.81 0.68 0.67 0.53 0.42 0.48 0.38 0.36 0.46 0.53 0.57 0.64 0.64 0.57 0.49 0.44 0.43 0.52 0.62 0.64 0.60 0.62 0.60 0.56 0.59 0.62 0.62 0.66 0.69 0.73 0.66 0.60 0.60 0.62 0.74 0.73 0.78 0.69 0.71 0.79 0.72 0.65 0.68 0.68 0.59
0.78 1.01 1.07 0.92 0.85 0.75 0.69 0.72 0.50 0.50 0.44 0.48 0.50 0.51 0.56 0.61 0.62 0.61 0.54 0.46 0.41 0.47 0.59 0.70 0.67 0.69 0.65 0.60 0.63 0.66 0.66 0.63 0.65 0.69 0.62 0.58 0.61 0.62 0.74 0.78 0.77 0.75 0.78 0.81 0.84 0.83 0.79 0.70 0.62
0.90 1.09 1.32 0.99 0.86 0.76 0.80 0.85 0.57 0.58 0.53 0.51 0.48 0.50 0.49 0.52 0.55 0.60 0.55 0.48 0.44 0.43 0.52 0.64 0.65 0.70 0.74 0.73 0.73 0.70 0.65 0.67 0.72 0.75 0.70 0.66 0.64 0.67 0.87 0.92 0.81 0.86 0.97 1.00 1.02 0.98 0.90 0.80 0.76
1.10 1.15 1.12 1.01 0.80 0.71 0.74 0.72 0.61 0.59 0.54 0.50 0.44 0.41 0.38 0.38 0.43 0.48 0.46 0.44 0.43 0.44 0.48 0.53 0.59 0.79 0.82 0.78 0.84 0.84 0.80 0.86 0.89 0.92 0.89 0.84 0.81 0.89 1.06 1.13 1.04 1.02 1.17 1.14 1.03 1.04 1.05 0.96 0.95
0.87 0.76 0.76 0.84 0.69 0.64 0.67 0.55 0.55 0.55 0.51 0.47 0.44 0.37 0.32 0.32 0.35 0.34 0.33 0.33 0.33 0.37 0.41 0.47 0.56 0.68 0.80 0.95 1.03 1.11 1.12 1.11 1.23 1.30 1.29 1.12 1.07 1.13 1.28 1.38 1.34 1.30 1.41 1.39 1.27 1.36 1.35 1.26 1.29
0.60 0.59 0.65 0.62 0.51 0.54 0.55 0.47 0.51 0.51 0.50 0.40 0.35 0.32 0.28 0.25 0.26 0.23 0.21 0.24 0.25 0.28 0.32 0.38 0.54 0.70 0.86 0.99 1.13 1.38 1.54 1.64 1.63 1.63 1.70 1.62 1.44 1.52 1.64 1.60 1.82 1.89 1.86 1.86 1.80 1.92 1.94 1.67 1.50
0.58 0.59 0.60 0.54 0.42 0.44 0.46 0.44 0.44 0.46 0.42 0.32 0.29 0.29 0.23 0.19 0.17 0.17 0.14 0.16 0.16 0.19 0.23 0.30 0.44 0.68 0.92 1.15 1.33 1.52 1.84 2.00 2.00 2.06 2.01 1.96 1.85 1.87 1.79 1.87 2.08 2.13 2.23 2.32 2.16 2.29 2.35 2.03 1.74
0.53 0.50 0.51 0.49 0.48 0.43 0.40 0.44 0.45 0.44 0.37 0.27 0.20 0.20 0.18 0.15 0.15 0.16 0.13 0.12 0.11 0.12 0.16 0.22 0.35 0.57 0.88 1.19 1.45 1.64 1.88 2.14 2.24 2.15 2.10 2.13 2.21 2.26 2.15 2.11 2.23 2.25 2.32 2.51 2.55 2.50 2.57 2.48 2.17
0.60 0.39 0.38 0.39 0.44 0.52 0.40 0.51 0.50 0.46 0.39 0.29 0.23 0.21 0.19 0.17 0.17 0.16 0.12 0.11 0.11 0.13 0.16 0.20 0.34 0.49 0.72 0.99 1.32 1.57 1.84 2.15 2.22 2.20 2.17 2.21 2.33 2.42 2.38 2.33 2.39 2.39 2.35 2.47 2.56 2.54 2.74 2.89 2.61
0.48 0.30 0.32 0.37 0.35 0.37 0.33 0.43 0.44 0.40 0.41 0.36 0.32 0.28 0.24 0.20 0.20 0.18 0.15 0.14 0.17 0.19 0.20 0.27 0.40 0.54 0.74 0.98 1.30 1.63 1.82 1.99 2.19 2.20 2.12 2.05 2.12 2.14 2.12 2.24 2.39 2.41 2.38 2.39 2.58 2.69 2.86 2.84 2.75
0.34 0.34 0.34 0.33 0.33 0.36 0.26 0.37 0.42 0.37 0.37 0.36 0.33 0.31 0.23 0.17 0.19 0.22 0.26 0.26 0.26 0.29 0.33 0.40 0.52 0.72 0.87 0.97 1.12 1.29 1.50 1.78 1.92 2.02 2.06 2.07 2.07 1.95 1.87 1.98 2.09 2.18 2.23 2.21 2.27 2.43 2.57 2.73 2.88
0.29 0.39 0.49 0.49 0.49 0.44 0.23 0.34 0.42 0.32 0.28 0.30 0.31 0.30 0.26 0.25 0.30 0.37 0.47 0.43 0.41 0.44 0.53 0.59 0.65 0.74 0.79 0.79 0.87 1.00 1.16 1.38 1.52 1.61 1.81 1.88 1.92 1.86 1.81 1.79 1.87 1.95 1.99 2.09 2.26 2.25 2.28 2.46 2.65
0.24 0.28 0.45 0.52 0.46 0.38 0.35 0.47 0.49 0.37 0.30 0.28 0.29 0.25 0.26 0.32 0.42 0.57 0.68 0.72 0.67 0.65 0.67 0.65 0.65 0.61 0.62 0.66 0.73 0.81 0.88 1.02 1.13 1.21 1.37 1.50 1.50 1.48 1.47 1.53 1.63 1.78 1.88 1.98 2.12 2.16 2.12 2.20 2.26
0.20 0.17 0.19 0.30 0.28 0.32 0.40 0.55 0.53 0.37 0.30 0.29 0.29 0.26 0.31 0.44 0.58 0.74 0.87 0.94 0.90 0.81 0.74 0.70 0.70 0.67 0.59 0.61 0.69 0.76 0.81 0.82 0.85 0.89 0.89 0.97 1.06 1.09 1.14 1.21 1.35 1.55 1.69 1.75 1.86 2.00 1.99 2.05 2.05
0.15 0.15 0.18 0.33 0.46 0.47 0.46 0.56 0.63 0.51 0.39 0.38 0.40 0.46 0.57 0.74 0.81 0.92 0.99 0.98 0.97 1.02 0.96 0.79 0.72 0.73 0.67 0.74 0.75 0.73 0.71 0.70 0.68 0.72 0.77 0.78 0.87 0.98 1.08 1.09 1.17 1.30 1.40 1.50 1.68 1.82 1.90 1.93 1.90
0.14 0.18 0.27 0.40 0.48 0.65 0.76 0.86 0.71 0.58 0.57 0.55 0.58 0.75 0.83 0.93 1.00 1.02 1.09 1.02 0.90 0.90 0.88 0.86 0.81 0.75 0.76 0.81 0.81 0.71 0.68 0.68 0.68 0.65 0.68 0.76 0.85 0.95 1.01 1.07 1.11 1.15 1.25 1.30 1.42 1.57 1.71 1.73 1.74
0.26 0.39 0.49 0.68 0.68 0.67 0.92 1.09 0.80 0.65 0.67 0.68 0.68 0.66 0.66 0.83 0.95 0.98 1.05 0.97 0.82 0.78 0.69 0.72 0.80 0.81 0.87 0.88 0.81 0.72 0.72 0.75 0.80 0.78 0.70 0.71 0.77 0.79 0.90 1.04 1.04 1.05 1.10 1.19 1.30 1.40 1.46 1.55 1.52